| time (UTC) | temp C | wind direction | speed KPH | gust KPH | rain 1hr cm | rain 24hr cm | rain mn cm | humidity % | barometer mb |
| 20260508131303 | 10 | 293 | 3.2 | 6.4 | 0.00 | 0.00 | 0.00 | 62 | 1015.2 |
| 20260508130803 | 10 | 338 | 3.2 | 3.2 | 0.00 | 0.00 | 0.00 | 61 | 1015.2 |
| 20260508130303 | 10 | 315 | 8.0 | 8.0 | 0.00 | 0.00 | 0.00 | 62 | 1015.2 |
| 20260508125803 | 10 | 225 | 3.2 | 3.2 | 0.00 | 0.00 | 0.00 | 63 | 1014.9 |
| 20260508125305 | 10 | 270 | 3.2 | 3.2 | 0.00 | 0.00 | 0.00 | 64 | 1014.9 |
| 20260508124803 | 10 | 248 | 0.0 | 1.6 | 0.00 | 0.00 | 0.00 | 63 | 1014.9 |
| 20260508124303 | 10 | 180 | 0.0 | 0.0 | 0.00 | 0.00 | 0.00 | 64 | 1014.9 |
| 20260508123803 | 10 | 270 | 8.0 | 8.0 | 0.00 | 0.00 | 0.00 | 64 | 1014.9 |
| 20260508123303 | 9 | 225 | 0.0 | 0.0 | 0.00 | 0.00 | 0.00 | 66 | 1014.9 |
| 20260508122803 | 9 | 270 | 0.0 | 1.6 | 0.00 | 0.00 | 0.00 | 66 | 1014.9 |
| 20260508122306 | 8 | 203 | 0.0 | 0.0 | 0.00 | 0.00 | 0.00 | 66 | 1015.2 |
| 20260508121803 | 8 | 270 | 4.8 | 4.8 | 0.00 | 0.00 | 0.00 | 67 | 1015.2 |
| 20260508121303 | 8 | 23 | 3.2 | 3.2 | 0.00 | 0.00 | 0.00 | 68 | 1014.9 |
| 20260508120803 | 8 | 203 | 3.2 | 6.4 | 0.00 | 0.00 | 0.00 | 68 | 1014.9 |
| 20260508120303 | 8 | 203 | 3.2 | 3.2 | 0.00 | 0.00 | 0.00 | 69 | 1014.9 |
| 20260508115803 | 7 | 135 | 3.2 | 3.2 | 0.00 | 0.00 | 0.00 | 70 | 1014.9 |
| 20260508115306 | 7 | 135 | 4.8 | 6.4 | 0.00 | 0.00 | 0.00 | 72 | 1014.9 |
| 20260508114803 | 7 | 203 | 3.2 | 3.2 | 0.00 | 0.00 | 0.00 | 72 | 1014.9 |
| 20260508114303 | 7 | 180 | 3.2 | 3.2 | 0.00 | 0.00 | 0.00 | 73 | 1014.9 |
| 20260508113803 | 6 | 180 | 0.0 | 0.0 | 0.00 | 0.00 | 0.00 | 76 | 1014.9 |
| 20260508113303 | 6 | 248 | 3.2 | 3.2 | 0.00 | 0.00 | 0.00 | 74 | 1014.9 |
| 20260508112803 | 6 | 0 | 1.6 | 3.2 | 0.00 | 0.00 | 0.00 | 75 | 1014.9 |
| 20260508112306 | 6 | 293 | 0.0 | 0.0 | 0.00 | 0.00 | 0.00 | 77 | 1014.5 |
| 20260508111803 | 6 | 158 | 0.0 | 0.0 | 0.00 | 0.00 | 0.00 | 79 | 1014.5 |
| 20260508111303 | 6 | 180 | 0.0 | 0.0 | 0.00 | 0.00 | 0.00 | 79 | 1014.5 |
| 20260508110803 | 6 | 225 | 0.0 | 0.0 | 0.00 | 0.00 | 0.00 | 79 | 1014.5 |
| 20260508110303 | 6 | 113 | 0.0 | 0.0 | 0.00 | 0.00 | 0.00 | 78 | 1014.5 |
| 20260508105306 | 5 | 135 | 0.0 | 0.0 | 0.00 | 0.00 | 0.00 | 80 | 1014.2 |
| 20260508104803 | 5 | 158 | 0.0 | 0.0 | 0.00 | 0.00 | 0.00 | 80 | 1014.2 |
| 20260508104303 | 5 | 158 | 0.0 | 0.0 | 0.00 | 0.00 | 0.00 | 80 | 1014.2 |
| 20260508103803 | 5 | 113 | 3.2 | 3.2 | 0.00 | 0.00 | 0.00 | 79 | 1014.2 |
| 20260508103303 | 5 | 135 | 0.0 | 0.0 | 0.00 | 0.00 | 0.00 | 79 | 1014.2 |
| 20260508102803 | 5 | 135 | 0.0 | 0.0 | 0.00 | 0.00 | 0.00 | 78 | 1014.2 |
| 20260508102306 | 5 | 135 | 0.0 | 0.0 | 0.00 | 0.00 | 0.00 | 78 | 1014.2 |
| 20260508101803 | 5 | 113 | 0.0 | 0.0 | 0.00 | 0.00 | 0.00 | 79 | 1014.2 |
| 20260508101303 | 5 | 158 | 0.0 | 0.0 | 0.00 | 0.00 | 0.00 | 79 | 1014.2 |
| 20260508100803 | 5 | 135 | 0.0 | 0.0 | 0.00 | 0.00 | 0.00 | 78 | 1014.2 |
| 20260508100303 | 5 | 113 | 0.0 | 0.0 | 0.00 | 0.00 | 0.00 | 77 | 1014.2 |
| 20260508095803 | 5 | 180 | 0.0 | 0.0 | 0.00 | 0.00 | 0.00 | 78 | 1014.2 |
| 20260508095306 | 5 | 135 | 0.0 | 0.0 | 0.00 | 0.00 | 0.00 | 79 | 1014.2 |
| 20260508094803 | 5 | 158 | 0.0 | 0.0 | 0.00 | 0.00 | 0.00 | 77 | 1014.2 |
| 20260508094303 | 5 | 180 | 0.0 | 0.0 | 0.00 | 0.00 | 0.00 | 77 | 1014.2 |
| 20260508093803 | 5 | 135 | 0.0 | 0.0 | 0.00 | 0.00 | 0.00 | 77 | 1014.2 |
| 20260508093303 | 5 | 113 | 0.0 | 0.0 | 0.00 | 0.00 | 0.00 | 77 | 1014.2 |
| 20260508092803 | 5 | 90 | 0.0 | 0.0 | 0.00 | 0.00 | 0.00 | 77 | 1014.2 |
| 20260508092312 | 5 | 135 | 0.0 | 0.0 | 0.00 | 0.00 | 0.00 | 77 | 1014.2 |
| 20260508091803 | 6 | 113 | 0.0 | 0.0 | 0.00 | 0.00 | 0.00 | 77 | 1014.2 |
| 20260508091303 | 6 | 135 | 0.0 | 0.0 | 0.00 | 0.00 | 0.00 | 76 | 1014.2 |
| 20260508090803 | 6 | 180 | 0.0 | 0.0 | 0.00 | 0.00 | 0.00 | 76 | 1014.2 |
| 20260508090303 | 6 | 180 | 0.0 | 0.0 | 0.00 | 0.00 | 0.00 | 76 | 1014.2 |
| 20260508085803 | 6 | 158 | 0.0 | 0.0 | 0.00 | 0.00 | 0.00 | 77 | 1014.2 |
| 20260508085306 | 6 | 113 | 0.0 | 0.0 | 0.00 | 0.00 | 0.00 | 76 | 1014.2 |
| 20260508084803 | 6 | 180 | 0.0 | 0.0 | 0.00 | 0.00 | 0.00 | 79 | 1014.2 |
| 20260508084303 | 6 | 113 | 0.0 | 0.0 | 0.00 | 0.00 | 0.00 | 76 | 1014.2 |
| 20260508083803 | 6 | 135 | 0.0 | 0.0 | 0.00 | 0.00 | 0.00 | 75 | 1014.2 |
| 20260508083303 | 6 | 113 | 0.0 | 0.0 | 0.00 | 0.00 | 0.00 | 77 | 1014.2 |
| 20260508082803 | 6 | 135 | 0.0 | 0.0 | 0.00 | 0.00 | 0.00 | 75 | 1014.2 |
| 20260508082306 | 6 | 180 | 0.0 | 0.0 | 0.00 | 0.00 | 0.00 | 74 | 1014.2 |
| 20260508081803 | 6 | 180 | 0.0 | 0.0 | 0.00 | 0.00 | 0.00 | 79 | 1014.2 |
| 20260508081303 | 7 | 113 | 0.0 | 0.0 | 0.00 | 0.00 | 0.00 | 75 | 1014.2 |
| 20260508080803 | 7 | 180 | 0.0 | 0.0 | 0.00 | 0.00 | 0.00 | 72 | 1014.2 |
| 20260508080303 | 7 | 180 | 0.0 | 0.0 | 0.00 | 0.00 | 0.00 | 72 | 1014.2 |
| 20260508075803 | 7 | 180 | 0.0 | 0.0 | 0.00 | 0.00 | 0.00 | 72 | 1014.2 |
| 20260508075308 | 7 | 135 | 0.0 | 0.0 | 0.00 | 0.00 | 0.00 | 73 | 1014.2 |
| 20260508074803 | 7 | 135 | 0.0 | 0.0 | 0.00 | 0.00 | 0.00 | 72 | 1014.2 |
| 20260508074303 | 7 | 135 | 0.0 | 0.0 | 0.00 | 0.00 | 0.00 | 70 | 1014.2 |
| 20260508073804 | 8 | 158 | 0.0 | 0.0 | 0.00 | 0.00 | 0.00 | 71 | 1014.2 |
| 20260508073303 | 8 | 158 | 0.0 | 0.0 | 0.00 | 0.00 | 0.00 | 75 | 1014.2 |
| 20260508072803 | 8 | 158 | 0.0 | 0.0 | 0.00 | 0.00 | 0.00 | 71 | 1014.2 |
| 20260508072307 | 8 | 180 | 0.0 | 0.0 | 0.00 | 0.00 | 0.00 | 75 | 1014.9 |
| 20260508071803 | 8 | 180 | 0.0 | 0.0 | 0.00 | 0.00 | 0.00 | 72 | 1014.9 |
| 20260508071303 | 8 | 45 | 0.0 | 0.0 | 0.00 | 0.00 | 0.00 | 69 | 1014.9 |
| 20260508070803 | 8 | 225 | 0.0 | 0.0 | 0.00 | 0.00 | 0.00 | 70 | 1014.9 |
| 20260508070303 | 8 | 203 | 0.0 | 0.0 | 0.00 | 0.00 | 0.00 | 71 | 1014.9 |
| 20260508065803 | 8 | 203 | 0.0 | 0.0 | 0.00 | 0.00 | 0.00 | 66 | 1014.9 |
| 20260508065306 | 8 | 203 | 0.0 | 0.0 | 0.00 | 0.00 | 0.00 | 68 | 1014.9 |
| 20260508064803 | 8 | 225 | 0.0 | 0.0 | 0.00 | 0.00 | 0.00 | 67 | 1015.2 |
| 20260508064303 | 8 | 270 | 3.2 | 3.2 | 0.00 | 0.00 | 0.00 | 65 | 1015.2 |
| 20260508063801 | 8 | 293 | 1.6 | 3.2 | 0.00 | 0.00 | 0.00 | 65 | 1015.2 |
| 20260508063301 | 8 | 338 | 4.8 | 4.8 | 0.00 | 0.00 | 0.00 | 65 | 1015.2 |
| 20260508062801 | 8 | 293 | 0.0 | 1.6 | 0.00 | 0.00 | 0.00 | 65 | 1015.2 |
| 20260508062301 | 8 | 0 | 1.6 | 1.6 | 0.00 | 0.00 | 0.00 | 63 | 1014.9 |
| 20260508061801 | 8 | 315 | 3.2 | 3.2 | 0.00 | 0.00 | 0.00 | 64 | 1014.9 |
| 20260508061301 | 8 | 270 | 3.2 | 6.4 | 0.00 | 0.00 | 0.00 | 65 | 1014.5 |
| 20260508060801 | 8 | 270 | 0.0 | 0.0 | 0.00 | 0.00 | 0.00 | 65 | 1014.5 |
| 20260508060301 | 8 | 270 | 0.0 | 0.0 | 0.00 | 0.00 | 0.00 | 66 | 1014.5 |
| 20260508055801 | 8 | 158 | 0.0 | 0.0 | 0.00 | 0.00 | 0.00 | 66 | 1014.5 |
| 20260508055305 | 8 | 135 | 0.0 | 0.0 | 0.00 | 0.00 | 0.00 | 66 | 1014.5 |
| 20260508054801 | 8 | 90 | 0.0 | 0.0 | 0.00 | 0.00 | 0.00 | 66 | 1014.5 |
| 20260508054302 | 8 | 23 | 0.0 | 0.0 | 0.00 | 0.00 | 0.00 | 68 | 1014.5 |
| 20260508053801 | 8 | 113 | 0.0 | 0.0 | 0.00 | 0.00 | 0.00 | 67 | 1014.5 |
| 20260508053301 | 8 | 113 | 0.0 | 0.0 | 0.00 | 0.00 | 0.00 | 67 | 1014.5 |
| 20260508052801 | 7 | 135 | 0.0 | 0.0 | 0.00 | 0.00 | 0.00 | 66 | 1014.5 |
| 20260508052301 | 8 | 113 | 0.0 | 0.0 | 0.00 | 0.00 | 0.00 | 67 | 1014.9 |
| 20260508051801 | 8 | 135 | 0.0 | 0.0 | 0.00 | 0.00 | 0.00 | 64 | 1014.9 |
| 20260508051301 | 8 | 158 | 0.0 | 0.0 | 0.00 | 0.00 | 0.00 | 65 | 1014.9 |
| 20260508050801 | 8 | 113 | 0.0 | 0.0 | 0.00 | 0.00 | 0.00 | 65 | 1014.9 |
| 20260508050301 | 8 | 135 | 0.0 | 0.0 | 0.00 | 0.00 | 0.00 | 64 | 1014.9 |
| 20260508045801 | 8 | 135 | 0.0 | 0.0 | 0.00 | 0.00 | 0.00 | 64 | 1015.2 |
| 20260508045301 | 8 | 90 | 0.0 | 0.0 | 0.00 | 0.00 | 0.00 | 65 | 1015.2 |
| 20260508044801 | 8 | 135 | 0.0 | 0.0 | 0.00 | 0.00 | 0.00 | 67 | 1014.9 |
| 20260508044301 | 7 | 158 | 0.0 | 0.0 | 0.00 | 0.00 | 0.00 | 68 | 1014.9 |
| 20260508043801 | 7 | 135 | 0.0 | 0.0 | 0.00 | 0.00 | 0.00 | 66 | 1014.9 |
| 20260508043301 | 7 | 203 | 0.0 | 0.0 | 0.00 | 0.00 | 0.00 | 66 | 1014.9 |
| 20260508042801 | 7 | 158 | 0.0 | 0.0 | 0.00 | 0.00 | 0.00 | 68 | 1014.9 |
| 20260508042311 | 7 | 180 | 0.0 | 0.0 | 0.00 | 0.00 | 0.00 | 66 | 1014.9 |
| 20260508041801 | 7 | 158 | 0.0 | 0.0 | 0.00 | 0.00 | 0.00 | 67 | 1014.9 |
| 20260508041301 | 7 | 68 | 0.0 | 0.0 | 0.00 | 0.00 | 0.00 | 70 | 1014.9 |
| 20260508040801 | 7 | 135 | 0.0 | 0.0 | 0.00 | 0.00 | 0.00 | 67 | 1014.9 |
| 20260508040300 | 7 | 225 | 0.0 | 0.0 | 0.00 | 0.00 | 0.00 | 66 | 1014.9 |
| 20260508035801 | 7 | 113 | 0.0 | 0.0 | 0.00 | 0.00 | 0.00 | 65 | 1014.9 |
| 20260508035301 | 7 | 23 | 0.0 | 0.0 | 0.00 | 0.00 | 0.00 | 67 | 1014.9 |
| 20260508034801 | 7 | 135 | 0.0 | 0.0 | 0.00 | 0.00 | 0.00 | 72 | 1014.9 |
| 20260508034301 | 7 | 225 | 0.0 | 0.0 | 0.00 | 0.00 | 0.00 | 69 | 1014.9 |
| 20260508033801 | 7 | 225 | 0.0 | 0.0 | 0.00 | 0.00 | 0.00 | 68 | 1014.9 |
| 20260508033301 | 7 | 270 | 0.0 | 0.0 | 0.00 | 0.00 | 0.00 | 70 | 1014.5 |
| 20260508032801 | 7 | 203 | 0.0 | 0.0 | 0.00 | 0.00 | 0.00 | 78 | 1014.5 |
| 20260508032305 | 7 | 180 | 0.0 | 0.0 | 0.00 | 0.00 | 0.00 | 73 | 1014.9 |
| 20260508031801 | 7 | 158 | 0.0 | 0.0 | 0.00 | 0.00 | 0.00 | 67 | 1014.9 |
| 20260508031301 | 7 | 203 | 0.0 | 0.0 | 0.00 | 0.00 | 0.00 | 66 | 1014.9 |
| 20260508030801 | 7 | 113 | 0.0 | 0.0 | 0.00 | 0.00 | 0.00 | 69 | 1014.9 |
| 20260508030301 | 7 | 180 | 0.0 | 0.0 | 0.00 | 0.00 | 0.00 | 75 | 1014.9 |
| 20260508025801 | 7 | 203 | 0.0 | 0.0 | 0.00 | 0.00 | 0.00 | 75 | 1014.9 |
| 20260508025305 | 7 | 203 | 0.0 | 0.0 | 0.00 | 0.00 | 0.00 | 68 | 1014.9 |
| 20260508024801 | 7 | 203 | 0.0 | 0.0 | 0.00 | 0.00 | 0.00 | 66 | 1014.9 |
| 20260508024301 | 7 | 180 | 0.0 | 0.0 | 0.00 | 0.00 | 0.00 | 70 | 1014.9 |
| 20260508023801 | 7 | 158 | 0.0 | 0.0 | 0.00 | 0.00 | 0.00 | 67 | 1014.9 |
| 20260508023301 | 7 | 113 | 0.0 | 0.0 | 0.00 | 0.00 | 0.00 | 65 | 1014.9 |
| 20260508022801 | 7 | 113 | 0.0 | 0.0 | 0.00 | 0.00 | 0.00 | 67 | 1014.9 |
| 20260508022301 | 7 | 203 | 0.0 | 0.0 | 0.00 | 0.00 | 0.00 | 64 | 1014.9 |
| 20260508021802 | 7 | 180 | 0.0 | 0.0 | 0.00 | 0.00 | 0.00 | 71 | 1014.9 |
| 20260508021301 | 7 | 180 | 0.0 | 0.0 | 0.00 | 0.00 | 0.00 | 71 | 1014.9 |
| 20260508020801 | 7 | 270 | 0.0 | 0.0 | 0.00 | 0.00 | 0.00 | 63 | 1014.9 |
| 20260508020301 | 8 | 203 | 0.0 | 0.0 | 0.00 | 0.00 | 0.00 | 65 | 1014.9 |
| 20260508015801 | 8 | 113 | 0.0 | 0.0 | 0.00 | 0.00 | 0.00 | 65 | 1014.9 |
| 20260508015305 | 8 | 203 | 0.0 | 0.0 | 0.00 | 0.00 | 0.00 | 62 | 1014.9 |
| 20260508014801 | 8 | 225 | 0.0 | 0.0 | 0.00 | 0.00 | 0.00 | 61 | 1014.9 |
| 20260508014301 | 8 | 203 | 0.0 | 0.0 | 0.00 | 0.00 | 0.00 | 67 | 1014.9 |
| 20260508013801 | 8 | 225 | 0.0 | 0.0 | 0.00 | 0.00 | 0.00 | 60 | 1014.9 |
| 20260508013301 | 8 | 225 | 0.0 | 0.0 | 0.00 | 0.00 | 0.00 | 62 | 1014.5 |
| 20260508012801 | 8 | 225 | 0.0 | 0.0 | 0.00 | 0.00 | 0.00 | 62 | 1014.5 |
| 20260508012306 | 8 | 225 | 0.0 | 0.0 | 0.00 | 0.00 | 0.00 | 63 | 1014.5 |
| 20260508011802 | 8 | 180 | 0.0 | 0.0 | 0.00 | 0.00 | 0.00 | 67 | 1014.5 |
| 20260508011301 | 8 | 225 | 0.0 | 0.0 | 0.00 | 0.00 | 0.00 | 61 | 1014.2 |
| 20260508010801 | 8 | 225 | 0.0 | 0.0 | 0.00 | 0.00 | 0.00 | 60 | 1014.2 |
| 20260508010301 | 8 | 203 | 0.0 | 0.0 | 0.00 | 0.00 | 0.00 | 64 | 1014.2 |
| 20260508005801 | 9 | 203 | 0.0 | 0.0 | 0.00 | 0.00 | 0.00 | 62 | 1014.2 |
| 20260508005305 | 9 | 203 | 0.0 | 0.0 | 0.00 | 0.00 | 0.00 | 62 | 1014.2 |
| 20260508004802 | 10 | 225 | 0.0 | 0.0 | 0.00 | 0.00 | 0.00 | 63 | 1014.2 |
| 20260508004302 | 10 | 203 | 0.0 | 0.0 | 0.00 | 0.00 | 0.00 | 59 | 1014.2 |
| 20260508003802 | 10 | 225 | 0.0 | 0.0 | 0.00 | 0.00 | 0.00 | 59 | 1014.2 |
| 20260508003302 | 10 | 203 | 0.0 | 0.0 | 0.00 | 0.00 | 0.00 | 57 | 1014.2 |
| 20260508002802 | 10 | 180 | 0.0 | 0.0 | 0.00 | 0.00 | 0.00 | 55 | 1014.2 |
| 20260508002301 | 11 | 135 | 0.0 | 0.0 | 0.00 | 0.00 | 0.00 | 56 | 1014.2 |
| 20260508001802 | 11 | 180 | 0.0 | 0.0 | 0.00 | 0.00 | 0.00 | 55 | 1014.2 |
| 20260508001302 | 11 | 180 | 0.0 | 0.0 | 0.00 | 0.00 | 0.00 | 52 | 1014.2 |
| 20260508000802 | 11 | 270 | 0.0 | 0.0 | 0.00 | 0.00 | 0.00 | 49 | 1014.2 |
| 20260508000301 | 12 | 315 | 0.0 | 0.0 | 0.00 | 0.00 | 0.00 | 46 | 1014.2 |
| 20260507235801 | 12 | 270 | 1.6 | 3.2 | 0.00 | 0.00 | 0.00 | 44 | 1013.8 |
| 20260507235305 | 12 | 180 | 3.2 | 3.2 | 0.00 | 0.00 | 0.00 | 43 | 1013.8 |
| 20260507234802 | 12 | 315 | 6.4 | 6.4 | 0.00 | 0.00 | 0.00 | 45 | 1014.2 |
| 20260507234302 | 12 | 315 | 4.8 | 4.8 | 0.00 | 0.00 | 0.00 | 43 | 1014.2 |
| 20260507233802 | 12 | 338 | 3.2 | 4.8 | 0.00 | 0.00 | 0.00 | 43 | 1014.2 |
| 20260507233301 | 12 | 270 | 3.2 | 3.2 | 0.00 | 0.00 | 0.00 | 44 | 1013.8 |
| 20260507232801 | 12 | 248 | 3.2 | 4.8 | 0.00 | 0.00 | 0.00 | 43 | 1013.8 |
| 20260507232305 | 13 | 293 | 8.0 | 8.0 | 0.00 | 0.00 | 0.00 | 41 | 1013.8 |
| 20260507231801 | 13 | 315 | 3.2 | 6.4 | 0.00 | 0.00 | 0.00 | 42 | 1013.8 |
| 20260507231302 | 13 | 270 | 3.2 | 6.4 | 0.00 | 0.00 | 0.00 | 41 | 1013.8 |
| 20260507230801 | 13 | 315 | 6.4 | 6.4 | 0.00 | 0.00 | 0.00 | 41 | 1013.8 |
| 20260507230301 | 13 | 293 | 3.2 | 6.4 | 0.00 | 0.00 | 0.00 | 41 | 1013.8 |
| 20260507225801 | 13 | 293 | 3.2 | 4.8 | 0.00 | 0.00 | 0.00 | 41 | 1013.8 |
| 20260507225305 | 14 | 225 | 8.0 | 8.0 | 0.00 | 0.00 | 0.00 | 39 | 1013.8 |
| 20260507224802 | 14 | 338 | 6.4 | 6.4 | 0.00 | 0.00 | 0.00 | 39 | 1014.2 |
| 20260507224302 | 14 | 293 | 3.2 | 8.0 | 0.00 | 0.00 | 0.00 | 40 | 1014.2 |
| 20260507223802 | 14 | 315 | 4.8 | 8.0 | 0.00 | 0.00 | 0.00 | 39 | 1014.2 |
| 20260507223301 | 14 | 293 | 4.8 | 9.7 | 0.00 | 0.00 | 0.00 | 40 | 1014.2 |
| 20260507222801 | 14 | 315 | 8.0 | 8.0 | 0.00 | 0.00 | 0.00 | 40 | 1014.2 |
| 20260507222305 | 13 | 0 | 4.8 | 4.8 | 0.00 | 0.00 | 0.00 | 42 | 1014.2 |
| 20260507221802 | 13 | 338 | 6.4 | 9.7 | 0.00 | 0.00 | 0.00 | 40 | 1014.2 |
| 20260507221302 | 15 | 0 | 6.4 | 11.3 | 0.00 | 0.00 | 0.00 | 39 | 1014.2 |
| 20260507220802 | 15 | 338 | 6.4 | 11.3 | 0.00 | 0.00 | 0.00 | 38 | 1014.2 |
| 20260507220302 | 15 | 45 | 6.4 | 6.4 | 0.00 | 0.00 | 0.00 | 38 | 1014.2 |
| 20260507215801 | 15 | 338 | 6.4 | 9.7 | 0.00 | 0.00 | 0.00 | 36 | 1013.8 |
| 20260507215302 | 15 | 0 | 8.0 | 8.0 | 0.00 | 0.00 | 0.00 | 40 | 1013.8 |
| 20260507214802 | 15 | 270 | 6.4 | 8.0 | 0.00 | 0.00 | 0.00 | 36 | 1013.8 |
| 20260507214302 | 15 | 225 | 6.4 | 6.4 | 0.00 | 0.00 | 0.00 | 39 | 1013.8 |
| 20260507213802 | 15 | 0 | 6.4 | 6.4 | 0.00 | 0.00 | 0.00 | 39 | 1013.8 |
| 20260507213302 | 14 | 315 | 6.4 | 6.4 | 0.00 | 0.00 | 0.00 | 43 | 1013.5 |
| 20260507212301 | 15 | 293 | 8.0 | 9.7 | 0.00 | 0.00 | 0.00 | 40 | 1013.8 |
| 20260507211804 | 15 | 293 | 8.0 | 8.0 | 0.00 | 0.00 | 0.00 | 42 | 1013.8 |
| 20260507211301 | 14 | 315 | 9.7 | 9.7 | 0.00 | 0.00 | 0.00 | 41 | 1013.5 |
| 20260507210802 | 15 | 68 | 3.2 | 3.2 | 0.00 | 0.00 | 0.00 | 44 | 1013.5 |
| 20260507210302 | 16 | 315 | 9.7 | 11.3 | 0.00 | 0.00 | 0.00 | 39 | 1013.5 |
| 20260507205802 | 16 | 158 | 6.4 | 6.4 | 0.00 | 0.00 | 0.00 | 39 | 1013.5 |
| 20260507205302 | 15 | 293 | 6.4 | 6.4 | 0.00 | 0.00 | 0.00 | 39 | 1013.5 |
| 20260507204802 | 15 | 315 | 8.0 | 8.0 | 0.00 | 0.00 | 0.00 | 38 | 1013.2 |
| 20260507204302 | 15 | 270 | 8.0 | 9.7 | 0.00 | 0.00 | 0.00 | 39 | 1013.2 |
| 20260507203802 | 15 | 270 | 6.4 | 8.0 | 0.00 | 0.00 | 0.00 | 38 | 1013.2 |
| 20260507203302 | 15 | 293 | 8.0 | 9.7 | 0.00 | 0.00 | 0.00 | 39 | 1013.2 |
| 20260507202802 | 15 | 315 | 6.4 | 6.4 | 0.00 | 0.00 | 0.00 | 40 | 1013.2 |
| 20260507202306 | 15 | 23 | 9.7 | 9.7 | 0.00 | 0.00 | 0.00 | 38 | 1013.5 |
| 20260507201802 | 16 | 293 | 6.4 | 8.0 | 0.00 | 0.00 | 0.00 | 43 | 1013.5 |
| 20260507201302 | 16 | 0 | 3.2 | 8.0 | 0.00 | 0.00 | 0.00 | 42 | 1013.2 |
| 20260507200802 | 15 | 315 | 6.4 | 6.4 | 0.00 | 0.00 | 0.00 | 41 | 1013.2 |
| 20260507200302 | 15 | 293 | 8.0 | 8.0 | 0.00 | 0.00 | 0.00 | 40 | 1013.2 |
| 20260507195802 | 15 | 293 | 4.8 | 6.4 | 0.00 | 0.00 | 0.00 | 43 | 1013.5 |
| 20260507195305 | 15 | 180 | 3.2 | 9.7 | 0.00 | 0.00 | 0.00 | 44 | 1013.5 |
| 20260507194802 | 15 | 293 | 6.4 | 6.4 | 0.00 | 0.00 | 0.00 | 43 | 1013.5 |
| 20260507194302 | 15 | 203 | 3.2 | 8.0 | 0.00 | 0.00 | 0.00 | 44 | 1013.5 |
| 20260507193802 | 15 | 315 | 8.0 | 8.0 | 0.00 | 0.00 | 0.00 | 42 | 1013.5 |
| 20260507193302 | 15 | 0 | 8.0 | 8.0 | 0.00 | 0.00 | 0.00 | 43 | 1013.5 |
| 20260507192802 | 15 | 293 | 9.7 | 9.7 | 0.00 | 0.00 | 0.00 | 46 | 1013.5 |
| 20260507192305 | 16 | 270 | 6.4 | 8.0 | 0.00 | 0.00 | 0.00 | 42 | 1013.8 |
| 20260507191802 | 16 | 270 | 8.0 | 12.9 | 0.00 | 0.00 | 0.00 | 39 | 1013.8 |
| 20260507191302 | 16 | 293 | 8.0 | 8.0 | 0.00 | 0.00 | 0.00 | 42 | 1013.5 |
| 20260507190802 | 15 | 338 | 6.4 | 11.3 | 0.00 | 0.00 | 0.00 | 43 | 1013.5 |
| 20260507190302 | 15 | 315 | 6.4 | 6.4 | 0.00 | 0.00 | 0.00 | 43 | 1013.5 |
| 20260507185802 | 16 | 293 | 4.8 | 9.7 | 0.00 | 0.00 | 0.00 | 40 | 1013.5 |
| 20260507185305 | 15 | 0 | 6.4 | 12.9 | 0.00 | 0.00 | 0.00 | 41 | 1013.5 |
| 20260507184802 | 15 | 293 | 8.0 | 8.0 | 0.00 | 0.00 | 0.00 | 43 | 1013.8 |
| 20260507184302 | 15 | 203 | 3.2 | 3.2 | 0.00 | 0.00 | 0.00 | 40 | 1013.8 |
| 20260507183802 | 15 | 270 | 11.3 | 11.3 | 0.00 | 0.00 | 0.00 | 40 | 1013.8 |
| 20260507183302 | 15 | 270 | 3.2 | 3.2 | 0.00 | 0.00 | 0.00 | 42 | 1013.5 |
| 20260507182802 | 15 | 270 | 4.8 | 4.8 | 0.00 | 0.00 | 0.00 | 41 | 1013.5 |
| 20260507182306 | 14 | 270 | 3.2 | 3.2 | 0.00 | 0.00 | 0.00 | 41 | 1013.5 |
| 20260507181802 | 15 | 293 | 6.4 | 6.4 | 0.00 | 0.00 | 0.00 | 41 | 1013.5 |
| 20260507181302 | 15 | 0 | 3.2 | 9.7 | 0.00 | 0.00 | 0.00 | 41 | 1013.5 |
| 20260507180802 | 15 | 293 | 6.4 | 11.3 | 0.00 | 0.00 | 0.00 | 41 | 1013.5 |
| 20260507180302 | 14 | 338 | 4.8 | 6.4 | 0.00 | 0.00 | 0.00 | 44 | 1013.5 |
| 20260507175802 | 14 | 0 | 6.4 | 9.7 | 0.00 | 0.00 | 0.00 | 41 | 1013.8 |
| 20260507175306 | 14 | 293 | 3.2 | 3.2 | 0.00 | 0.00 | 0.00 | 43 | 1013.8 |
| 20260507174807 | 14 | 338 | 11.3 | 11.3 | 0.00 | 0.00 | 0.00 | 42 | 1014.2 |
| 20260507174302 | 13 | 203 | 9.7 | 9.7 | 0.00 | 0.00 | 0.00 | 43 | 1014.2 |
| 20260507173802 | 13 | 270 | 6.4 | 8.0 | 0.00 | 0.00 | 0.00 | 43 | 1014.2 |
| 20260507173302 | 13 | 315 | 8.0 | 8.0 | 0.00 | 0.00 | 0.00 | 42 | 1014.2 |
| 20260507172802 | 13 | 68 | 6.4 | 6.4 | 0.00 | 0.00 | 0.00 | 41 | 1014.2 |
| 20260507172306 | 13 | 68 | 6.4 | 9.7 | 0.00 | 0.00 | 0.00 | 42 | 1014.2 |
| 20260507171802 | 13 | 23 | 3.2 | 6.4 | 0.00 | 0.00 | 0.00 | 40 | 1014.2 |
| 20260507171302 | 12 | 293 | 3.2 | 9.7 | 0.00 | 0.00 | 0.00 | 40 | 1014.5 |
| 20260507170802 | 12 | 270 | 8.0 | 8.0 | 0.00 | 0.00 | 0.00 | 43 | 1014.5 |
| 20260507170302 | 13 | 315 | 4.8 | 4.8 | 0.00 | 0.00 | 0.00 | 40 | 1014.5 |
| 20260507165802 | 12 | 293 | 3.2 | 6.4 | 0.00 | 0.00 | 0.00 | 43 | 1014.5 |
| 20260507165306 | 12 | 338 | 3.2 | 4.8 | 0.00 | 0.00 | 0.00 | 42 | 1014.5 |
| 20260507164802 | 12 | 270 | 8.0 | 9.7 | 0.00 | 0.00 | 0.00 | 43 | 1014.9 |
| 20260507164302 | 12 | 315 | 3.2 | 3.2 | 0.00 | 0.00 | 0.00 | 42 | 1014.9 |
| 20260507163802 | 12 | 338 | 11.3 | 11.3 | 0.00 | 0.00 | 0.00 | 41 | 1014.9 |
| 20260507163302 | 12 | 270 | 4.8 | 9.7 | 0.00 | 0.00 | 0.00 | 43 | 1014.5 |
| 20260507162802 | 12 | 338 | 3.2 | 8.0 | 0.00 | 0.00 | 0.00 | 44 | 1014.5 |
| 20260507162302 | 12 | 270 | 4.8 | 4.8 | 0.00 | 0.00 | 0.00 | 44 | 1014.5 |
| 20260507161802 | 13 | 315 | 4.8 | 6.4 | 0.00 | 0.00 | 0.00 | 46 | 1014.5 |
| 20260507161302 | 12 | 270 | 9.7 | 9.7 | 0.00 | 0.00 | 0.00 | 43 | 1014.2 |
| 20260507160802 | 13 | 0 | 3.2 | 8.0 | 0.00 | 0.00 | 0.00 | 44 | 1014.2 |
| 20260507160302 | 12 | 270 | 6.4 | 9.7 | 0.00 | 0.00 | 0.00 | 43 | 1014.2 |
| 20260507155802 | 13 | 270 | 6.4 | 8.0 | 0.00 | 0.00 | 0.00 | 45 | 1014.2 |
| 20260507155306 | 12 | 225 | 9.7 | 9.7 | 0.00 | 0.00 | 0.00 | 44 | 1014.2 |
| 20260507154802 | 12 | 0 | 3.2 | 8.0 | 0.00 | 0.00 | 0.00 | 43 | 1014.2 |
| 20260507154302 | 12 | 293 | 8.0 | 8.0 | 0.00 | 0.00 | 0.00 | 45 | 1014.2 |
| 20260507153802 | 12 | 113 | 6.4 | 6.4 | 0.00 | 0.00 | 0.00 | 44 | 1014.2 |
| 20260507153303 | 12 | 68 | 3.2 | 3.2 | 0.00 | 0.00 | 0.00 | 46 | 1014.2 |
| 20260507152802 | 12 | 203 | 8.0 | 8.0 | 0.00 | 0.00 | 0.00 | 44 | 1014.2 |
| 20260507152305 | 12 | 270 | 3.2 | 8.0 | 0.00 | 0.00 | 0.00 | 44 | 1014.2 |
| 20260507151802 | 12 | 225 | 3.2 | 8.0 | 0.00 | 0.00 | 0.00 | 47 | 1014.2 |
| 20260507151302 | 12 | 293 | 3.2 | 3.2 | 0.00 | 0.00 | 0.00 | 45 | 1014.2 |
| 20260507150802 | 12 | 180 | 6.4 | 9.7 | 0.00 | 0.00 | 0.00 | 46 | 1014.2 |
| 20260507150302 | 12 | 225 | 3.2 | 6.4 | 0.00 | 0.00 | 0.00 | 47 | 1014.2 |
| 20260507145802 | 12 | 270 | 3.2 | 3.2 | 0.00 | 0.00 | 0.00 | 48 | 1014.5 |
| 20260507145306 | 12 | 225 | 4.8 | 11.3 | 0.00 | 0.00 | 0.00 | 47 | 1014.5 |
| 20260507144804 | 11 | 225 | 3.2 | 3.2 | 0.00 | 0.00 | 0.00 | 51 | 1014.5 |
| 20260507144302 | 11 | 293 | 4.8 | 4.8 | 0.00 | 0.00 | 0.00 | 51 | 1014.5 |
| 20260507143802 | 11 | 270 | 3.2 | 3.2 | 0.00 | 0.00 | 0.00 | 51 | 1014.5 |
| 20260507143302 | 11 | 270 | 3.2 | 8.0 | 0.00 | 0.00 | 0.00 | 50 | 1014.5 |
| 20260507142803 | 11 | 338 | 6.4 | 8.0 | 0.00 | 0.00 | 0.00 | 52 | 1014.5 |
| 20260507142302 | 11 | 293 | 6.4 | 6.4 | 0.00 | 0.00 | 0.00 | 56 | 1014.5 |
| 20260507141802 | 10 | 270 | 3.2 | 6.4 | 0.00 | 0.00 | 0.00 | 55 | 1014.5 |
| 20260507141302 | 10 | 338 | 3.2 | 6.4 | 0.00 | 0.00 | 0.00 | 58 | 1014.9 |
| 20260507140802 | 10 | 293 | 3.2 | 4.8 | 0.00 | 0.00 | 0.00 | 57 | 1014.9 |
| 20260507140302 | 10 | 203 | 3.2 | 3.2 | 0.00 | 0.00 | 0.00 | 58 | 1014.9 |
| 20260507135802 | 10 | 270 | 6.4 | 6.4 | 0.00 | 0.00 | 0.00 | 59 | 1014.9 |
| 20260507135306 | 10 | 270 | 3.2 | 8.0 | 0.00 | 0.00 | 0.00 | 58 | 1014.9 |
| 20260507134802 | 10 | 315 | 3.2 | 4.8 | 0.00 | 0.00 | 0.00 | 59 | 1014.9 |
| 20260507134302 | 9 | 248 | 6.4 | 6.4 | 0.00 | 0.00 | 0.00 | 59 | 1014.9 |
| 20260507133802 | 9 | 293 | 3.2 | 3.2 | 0.00 | 0.00 | 0.00 | 61 | 1014.9 |
| 20260507133302 | 8 | 203 | 3.2 | 3.2 | 0.00 | 0.00 | 0.00 | 62 | 1014.9 |
| 20260507132802 | 8 | 338 | 3.2 | 3.2 | 0.00 | 0.00 | 0.00 | 64 | 1014.9 |
| 20260507132306 | 8 | 293 | 3.2 | 3.2 | 0.00 | 0.00 | 0.00 | 67 | 1015.2 |
| 20260507131802 | 8 | 270 | 4.8 | 4.8 | 0.00 | 0.00 | 0.00 | 67 | 1015.2 |